Weather History for Petersburg, WV

Change the Weather History Date:

Sunday, March 17, 2013

  Actual Average (KEKN) Record (KEKN)
Temperature  
Mean Temperature 38 °F 40 °F  
Max Temperature 44 °F 52 °F 76 °F (1989)
Min Temperature 32 °F 28 °F 1 °F (1970)
Degree Days  
Heating Degree Days 27 25  
Month to date heating degree days 466  
Since 1 July heating degree days 4787  
Cooling Degree Days 0 0  
Month to date cooling degree days 0  
Year to date cooling degree days 0  
Moisture  
Dew Point 34 °F    
Average Humidity 83    
Maximum Humidity 94    
Minimum Humidity 69    
Precipitation  
Precipitation 0.05 in 0.13 in 3.32 in (1936)
Month to date precipitation 2.12  
Year to date precipitation 8.45  
Snow  
Snow 0.00 in - - ()
Month to date snowfall  
Since 1 September snowfall  
Snow Depth -    
Sea Level Pressure  
Sea Level Pressure 30.09 in    
Wind  
Wind Speed 3 mph (SE)    
Max Wind Speed 8 mph    
Max Gust Speed -    
Visibility 6 miles    
Events Rain , Snow    
T = Trace of Precipitation, MM = Missing Value Source: NWS Daily Summary

Daily Weather History Graph

Daily Weather History Graph

Search for Another Location

Airport:

Trip Planner

Search our weather history database for the weather conditions in past years. The results will help you decide how hot, cold, wet, or windy it might be!

Date:

Astronomy

Mar. 17, 2013 Rise Set
Actual Time 7:24 AM EDT 7:25 PM EDT
Civil Twilight 6:57 AM EDT 7:52 PM EDT
Nautical Twilight 6:26 AM EDT 8:23 PM EDT
Astronomical Twilight 5:55 AM EDT 8:55 PM EDT
Moon 10:38 AM EDT (3/17) 12:29 AM EDT (3/17)
Length of Visible Light 12h 54m
Length of Day
12h 01m
Waxing Crescent, 31% of the Moon is Illuminated
Mar 17
Waxing Crescent
Mar 19
First Quarter
Mar 27
Full
Apr 3
Last Quarter
Apr 10
New

Hourly Weather History & Observations

Time (EDT) Temp. Windchill Dew Point Humidity Pressure Visibility Wind Dir Wind Speed Gust Speed Precip Events Conditions
12:15 AM 43.5 °F 40.1 °F 38.7 °F 83% 29.89 in 5.0 mi ESE 5.8 mph - N/A   Haze
12:35 AM 44.2 °F 42.7 °F 38.8 °F 81% 29.89 in 7.0 mi South 3.5 mph - N/A   Scattered Clouds
12:55 AM 44.2 °F 40.3 °F 38.8 °F 81% 29.89 in 7.0 mi SSE 6.9 mph - N/A   Scattered Clouds
1:15 AM 42.8 °F 40.1 °F 37.6 °F 82% 29.89 in 5.0 mi ESE 4.6 mph - N/A   Haze
1:35 AM 42.3 °F 40.5 °F 37.8 °F 84% 29.90 in 5.0 mi South 3.5 mph - N/A   Clear
1:55 AM 40.8 °F - 36.0 °F 83% 29.91 in 5.0 mi Calm Calm - N/A   Haze
2:15 AM 41.7 °F - 37.0 °F 83% 29.92 in 5.0 mi Calm Calm - N/A   Haze
2:35 AM 40.6 °F 37.5 °F 36.3 °F 85% 29.92 in 5.0 mi SE 4.6 mph - N/A   Haze
2:55 AM 40.6 °F - 36.3 °F 85% 29.92 in 5.0 mi Calm Calm - N/A   Haze
3:15 AM 41.4 °F 38.4 °F 37.2 °F 85% 29.93 in 5.0 mi South 4.6 mph - N/A   Haze
3:35 AM 40.8 °F - 36.7 °F 85% 29.93 in 5.0 mi Calm Calm - N/A   Clear
3:55 AM 40.8 °F 38.8 °F 37.4 °F 88% 29.94 in 5.0 mi SE 3.5 mph - N/A   Clear
4:15 AM 41.2 °F 38.2 °F 37.2 °F 86% 29.93 in 5.0 mi East 4.6 mph - N/A   Clear
4:55 AM 40.8 °F 38.8 °F 37.4 °F 88% 29.94 in 5.0 mi SSE 3.5 mph - N/A   Scattered Clouds
5:15 AM 40.1 °F - 36.3 °F 86% 29.94 in 5.0 mi Calm Calm - N/A   Mostly Cloudy
5:35 AM 40.1 °F 36.9 °F 36.3 °F 86% 29.95 in 5.0 mi SSE 4.6 mph - N/A   Mostly Cloudy
5:55 AM 40.6 °F 38.6 °F 36.1 °F 84% 29.97 in 7.0 mi South 3.5 mph - N/A   Mostly Cloudy
6:15 AM 41.5 °F 37.8 °F 36.5 °F 82% 29.98 in 7.0 mi South 5.8 mph - N/A   Overcast
6:35 AM 41.2 °F 38.2 °F 36.5 °F 83% 29.99 in 7.0 mi SE 4.6 mph - N/A   Overcast
6:55 AM 41.0 °F 39.0 °F 36.5 °F 84% 30.00 in 7.0 mi ESE 3.5 mph - N/A   Overcast
7:15 AM 41.2 °F 37.3 °F 35.8 °F 81% 30.02 in 10.0 mi SE 5.8 mph - N/A   Overcast
7:35 AM 41.9 °F 36.9 °F 35.6 °F 78% 30.04 in 10.0 mi ESE 8.1 mph - N/A   Overcast
7:55 AM 41.9 °F 38.2 °F 35.4 °F 78% 30.05 in 10.0 mi East 5.8 mph - N/A   Overcast
8:15 AM 42.1 °F 39.2 °F 34.9 °F 76% 30.05 in 10.0 mi East 4.6 mph - N/A   Overcast
8:35 AM 42.1 °F 40.2 °F 34.7 °F 75% 30.07 in 10.0 mi ESE 3.5 mph - N/A   Overcast
9:15 AM 41.5 °F 38.6 °F 33.8 °F 74% 30.10 in 10.0 mi East 4.6 mph - N/A   Overcast
9:35 AM 41.4 °F 39.4 °F 33.1 °F 72% 30.13 in 10.0 mi ENE 3.5 mph - N/A   Overcast
9:55 AM 41.2 °F 38.2 °F 32.5 °F 71% 30.13 in 10.0 mi East 4.6 mph - N/A   Overcast
10:15 AM 41.2 °F 39.2 °F 32.5 °F 71% 30.12 in 10.0 mi NE 3.5 mph - N/A Rain Light Rain
10:35 AM 40.1 °F 34.7 °F 32.0 °F 73% 30.13 in 5.0 mi NNE 8.1 mph - N/A Rain Light Rain
10:55 AM 37.4 °F - 32.7 °F 83% 30.14 in 2.5 mi Calm Calm - N/A Snow Light Snow
11:15 AM 37.0 °F - 33.3 °F 86% 30.15 in 3.0 mi Calm Calm - 0.01 in Snow Light Snow
11:35 AM 36.1 °F - 33.1 °F 89% 30.17 in 2.0 mi Calm Calm - 0.02 in Snow Light Snow
11:55 AM 36.3 °F - 33.4 °F 89% 30.17 in 1.8 mi Calm Calm - 0.03 in Snow Light Snow
12:15 PM 36.1 °F - 33.4 °F 90% 30.16 in 1.2 mi Calm Calm - 0.01 in Snow Light Snow
12:35 PM 36.3 °F - 33.6 °F 90% 30.15 in 3.0 mi Calm Calm - 0.01 in Snow Light Snow
12:55 PM 36.9 °F - 34.2 °F 90% 30.15 in 5.0 mi Calm Calm - 0.01 in   Overcast
1:15 PM 37.4 °F 33.8 °F 33.4 °F 86% 30.14 in 10.0 mi ESE 4.6 mph - N/A   Overcast
1:35 PM 38.1 °F - 32.4 °F 80% 30.15 in 10.0 mi Calm Calm - N/A   Overcast
1:55 PM 38.5 °F - 32.4 °F 79% 30.15 in 10.0 mi Calm Calm - N/A   Overcast
2:15 PM 38.5 °F - 32.0 °F 78% 30.15 in 10.0 mi Calm Calm - 0.01 in   Overcast
2:35 PM 38.8 °F - 32.0 °F 76% 30.15 in 10.0 mi Calm Calm - 0.01 in   Overcast
2:55 PM 39.0 °F - 31.8 °F 75% 30.14 in 10.0 mi Calm Calm - 0.01 in   Overcast
3:15 PM 39.4 °F - 31.8 °F 74% 30.14 in 10.0 mi Calm Calm - N/A   Overcast
3:35 PM 39.2 °F - 30.6 °F 71% 30.14 in 10.0 mi Calm Calm - N/A   Overcast
3:55 PM 39.2 °F 37.0 °F 29.8 °F 69% 30.14 in 10.0 mi NNE 3.5 mph - N/A   Overcast
4:15 PM 39.4 °F - 30.0 °F 69% 30.14 in 10.0 mi Calm Calm - N/A   Overcast
4:35 PM 39.4 °F 35.2 °F 30.0 °F 69% 30.15 in 10.0 mi North 5.8 mph - N/A   Overcast
4:55 PM 38.5 °F - 29.3 °F 70% 30.15 in 10.0 mi Calm Calm - N/A   Overcast
5:15 PM 38.1 °F - 30.0 °F 73% 30.16 in 5.0 mi Calm Calm - N/A Snow Light Snow
5:35 PM 37.4 °F - 30.2 °F 75% 30.17 in 5.0 mi Calm Calm - N/A Snow Light Snow
5:55 PM 36.9 °F - 31.1 °F 80% 30.17 in 7.0 mi Calm Calm - N/A Snow Light Snow
6:15 PM 36.5 °F - 31.3 °F 81% 30.18 in 7.0 mi Calm Calm - N/A   Overcast
6:35 PM 36.1 °F - 31.8 °F 84% 30.18 in 7.0 mi Calm Calm - N/A   Overcast
6:55 PM 35.8 °F - 31.8 °F 86% 30.19 in 5.0 mi Calm Calm - N/A   Overcast
7:15 PM 35.6 °F - 31.8 °F 86% 30.19 in 5.0 mi Calm Calm - N/A   Overcast
7:35 PM 35.6 °F 32.8 °F 32.0 °F 87% 30.19 in 7.0 mi SSW 3.5 mph - N/A   Overcast
7:55 PM 35.8 °F 33.0 °F 32.2 °F 87% 30.19 in 7.0 mi South 3.5 mph - N/A   Overcast
8:15 PM 35.8 °F - 32.2 °F 87% 30.19 in 5.0 mi Calm Calm - N/A Snow Light Snow
8:35 PM 35.6 °F - 32.5 °F 89% 30.20 in 4.0 mi Calm Calm - N/A Snow Light Snow
8:55 PM 35.4 °F - 32.2 °F 88% 30.21 in 2.5 mi Calm Calm - N/A Snow Light Snow
9:15 PM 35.1 °F - 32.0 °F 89% 30.21 in 1.8 mi Calm Calm - N/A Snow Light Snow
9:35 PM 34.7 °F - 32.0 °F 90% 30.21 in 1.8 mi Calm Calm - N/A Snow Light Snow
9:55 PM 34.3 °F - 32.0 °F 91% 30.22 in 2.5 mi Calm Calm - N/A Snow Light Snow
10:15 PM 34.0 °F - 32.0 °F 92% 30.22 in 2.0 mi Calm Calm - N/A Snow Light Snow
10:35 PM 33.4 °F - 31.6 °F 93% 30.23 in 2.0 mi Calm Calm - N/A Snow Light Snow
10:55 PM 32.9 °F - 31.3 °F 94% 30.23 in 2.5 mi Calm Calm - N/A   Overcast
11:15 PM 32.7 °F - 30.9 °F 93% 30.23 in 2.0 mi Calm Calm - N/A Snow Light Snow
11:35 PM 32.2 °F - 30.6 °F 94% 30.23 in 1.5 mi Calm Calm - N/A Snow Light Snow
11:55 PM 32.9 °F - 31.3 °F 94% 30.23 in 1.2 mi Calm Calm - N/A Snow Light Snow